Vorticity
nan nan nan nan nan nan nan nan nan nan nan nan nan nan nan nan nan nan nan nan nan nan nan nan nan nan nan nan nan nan nan nan nan nan nan nan nan nan nan nan nan nan nan nan
nan 11 13 8 9 7 7 8 4 8 7 7 7 9 15 8 4 15 15 7 6 5 10 9 7 7 7 7 7 7 7 6 5 8 9 9 9 9 10 9 8 8 8 nan
nan 8 10 8 9 9 6 6 11 9 8 6 11 12 10 9 6 10 17 12 9 7 4 8 8 5 6 8 9 6 8 7 7 7 6 7 8 9 8 9 10 11 9 nan
nan 9 8 8 7 9 10 12 12 7 7 7 10 11 12 13 5 6 10 13 11 8 5 9 8 7 7 7 8 10 9 8 8 7 7 8 6 7 8 8 9 10 8 nan
nan 10 10 9 11 8 12 12 6 6 8 9 5 10 13 13 6 6 9 11 13 12 9 7 7 7 7 8 7 8 8 8 9 8 7 7 8 8 10 9 9 7 9 nan
nan 9 12 8 14 12 8 2 5 10 9 9 10 8 7 12 16 5 2 11 12 10 10 7 8 9 8 8 9 10 8 6 8 9 9 8 7 6 7 8 8 8 8 nan
nan 11 10 9 4 8 7 6 6 8 10 8 12 9 7 11 24 15 4 8 10 10 8 9 9 6 8 8 7 7 8 7 8 8 8 8 8 9 7 6 8 8 7 nan
nan 12 12 5 8 12 2 5 8 11 5 7 11 9 10 12 11 17 11 10 9 10 10 8 7 6 8 7 7 8 7 7 8 8 8 8 8 7 8 8 8 8 8 nan
nan 9 10 9 13 10 8 7 8 4 10 11 5 7 12 10 8 17 15 7 7 10 11 8 7 7 8 9 9 8 6 7 9 7 8 8 8 8 8 8 6 8 9 nan
nan 11 8 11 9 9 15 7 6 8 14 8 9 8 15 16 11 11 16 8 7 10 9 10 9 8 7 9 9 9 10 9 8 8 8 9 8 7 8 9 10 8 8 nan
nan 9 9 10 9 10 7 8 10 13 9 10 9 5 10 18 18 14 11 13 16 13 11 9 9 9 9 9 10 8 9 9 8 8 8 9 10 9 9 8 9 9 9 nan
nan 9 13 9 7 10 11 11 12 9 8 8 9 5 7 13 18 13 15 19 19 17 13 11 10 8 9 8 9 9 8 8 9 9 9 8 8 10 8 9 9 9 8 nan
nan 6 9 8 11 14 10 9 11 8 15 14 5 7 7 9 10 11 13 14 15 15 13 12 13 11 8 8 8 9 8 8 9 10 8 8 8 8 9 8 9 10 10 nan
nan 12 11 7 6 8 5 8 13 12 10 10 8 10 4 7 6 8 8 12 16 12 11 11 13 12 11 10 8 7 8 10 10 9 9 8 8 9 9 10 9 9 10 nan
nan 9 8 10 12 8 8 7 12 14 11 6 10 12 9 7 7 9 9 11 16 14 10 9 8 11 10 10 8 9 10 10 10 9 9 10 10 10 10 11 10 10 10 nan
nan 12 11 10 15 10 5 11 7 6 12 12 9 6 9 12 11 7 10 12 12 14 17 12 10 13 13 11 11 9 10 11 11 10 9 10 11 10 11 10 10 11 11 nan
nan 11 10 9 8 11 10 9 9 10 10 14 12 10 9 10 9 9 9 10 11 13 12 13 16 14 15 17 16 13 13 15 13 10 11 10 10 9 10 9 9 9 11 nan
nan 9 11 10 10 12 10 9 11 10 10 11 13 13 11 8 6 8 10 11 10 12 13 11 9 10 12 13 13 15 15 13 11 10 10 9 9 10 10 9 8 9 9 nan
nan 11 11 13 7 7 12 15 11 9 8 11 9 10 8 6 4 4 8 12 11 9 9 11 13 12 11 10 8 7 7 10 12 9 7 11 12 10 9 9 9 10 10 nan
nan 11 11 11 12 10 7 11 11 11 11 16 10 10 6 4 8 7 6 10 11 12 12 12 12 11 10 6 10 12 8 7 6 12 13 13 12 11 12 10 9 10 12 nan
nan 13 11 10 8 9 16 11 10 8 11 13 14 11 11 10 11 12 10 9 10 11 12 14 13 10 8 12 12 11 11 12 11 10 10 11 12 12 12 12 10 12 12 nan
nan 9 7 8 10 10 11 13 9 3 10 10 13 16 15 11 9 8 8 10 11 11 11 13 12 10 10 15 14 12 9 10 13 13 12 11 11 12 11 11 11 12 11 nan
nan 12 12 10 4 9 9 7 9 12 11 11 12 14 10 9 7 8 8 8 9 10 11 11 10 9 11 12 13 10 12 13 12 11 10 10 12 14 14 11 10 9 9 nan
nan 13 8 7 12 10 9 12 11 13 16 14 13 11 10 9 7 10 10 8 8 9 9 9 9 9 11 11 11 9 13 14 13 10 10 10 11 10 11 12 11 14 13 nan
nan 11 10 5 9 13 13 10 11 15 15 10 11 10 13 11 10 7 8 9 9 9 9 12 11 9 8 9 9 11 12 10 9 9 8 10 11 10 9 9 13 13 11 nan
nan nan nan nan nan nan nan nan nan nan nan nan nan nan nan nan nan nan nan nan nan nan nan nan nan nan nan nan nan nan nan nan nan nan nan nan nan nan nan nan nan nan nan nan
CAPE
0 0 0 0 0 0 0 57 102 158 58 24 27 45 85 70 109 70 72 12 3 77 100 84 56 39 170 186 247 229 153 187 250 158 118 145 177 58 147 479 642 14 114 36
0 0 0 0 0 0 0 66 119 80 44 30 44 31 48 41 74 7 40 29 14 17 13 67 40 71 138 109 164 169 125 185 186 200 113 116 189 164 204 388 509 689 97 308
0 0 0 0 0 0 0 43 148 75 18 8 38 0 46 57 47 2 0 15 25 27 42 46 59 72 71 55 95 174 85 194 114 203 186 198 334 403 485 439 593 595 31 643
0 0 0 0 0 2 8 147 80 68 0 1 55 1 3 48 7 2 0 0 2 15 36 39 50 41 68 42 68 183 66 155 67 171 235 301 298 285 334 381 360 523 563 612
0 0 0 0 0 0 1 136 64 71 136 71 40 41 0 42 33 15 0 0 0 17 13 42 37 52 64 38 137 141 75 112 63 73 145 160 146 111 109 272 242 201 333 474
0 0 0 7 68 11 415 196 57 19 101 28 29 4 0 21 42 19 0 0 0 0 30 47 62 67 41 53 143 105 96 105 23 34 46 89 104 38 185 208 323 126 268 388
0 0 437 509 530 346 22 0 1 0 15 33 17 56 17 0 8 40 0 0 0 0 27 29 45 77 43 106 127 119 71 83 38 0 10 45 38 26 125 174 231 288 253 317
0 0 642 258 468 494 3 0 0 0 25 6 83 28 1 0 0 13 9 0 0 8 23 24 32 59 80 139 130 143 59 68 29 0 28 24 25 33 80 81 108 254 316 312
0 0 0 0 318 273 75 41 8 87 22 25 71 18 10 0 0 0 0 0 0 0 34 34 30 54 58 112 149 131 78 38 44 1 0 17 0 16 88 161 82 147 207 261
0 0 0 0 89 90 74 15 107 51 83 58 48 6 6 7 17 9 0 0 0 0 9 40 63 47 55 75 134 95 77 48 58 44 16 5 0 41 81 110 164 178 227 311
0 0 0 0 0 0 0 2 0 5 1 74 55 15 68 18 126 146 130 41 0 0 0 42 73 95 75 81 108 157 89 42 70 67 48 93 66 76 96 73 139 211 247 385
0 0 0 0 0 0 0 0 0 0 0 1 47 0 68 120 179 210 39 6 1 0 3 67 96 133 121 82 88 229 213 150 166 128 67 118 116 126 144 227 193 226 291 365
0 0 0 0 0 0 56 77 17 0 0 0 0 0 116 93 99 79 46 9 3 26 0 12 75 183 218 164 243 316 336 253 243 210 171 133 175 159 204 320 420 381 420 504
0 0 0 0 0 0 133 79 105 0 0 0 0 81 200 118 126 120 76 49 49 14 1 0 34 140 244 328 429 491 474 393 293 309 289 242 218 235 247 217 267 352 407 479
0 0 0 0 0 88 102 79 314 361 211 0 2 88 222 105 40 52 15 92 156 74 13 5 11 58 119 323 653 630 559 425 305 357 327 310 255 274 309 316 338 347 408 405
0 12 0 21 74 109 102 37 250 237 123 251 172 154 165 3 3 50 123 91 111 183 124 53 37 93 159 204 519 643 587 461 395 420 379 272 243 253 357 262 187 193 389 337
0 0 0 0 0 5 2 19 49 272 116 68 83 14 34 55 90 93 50 37 126 362 108 121 151 161 283 372 441 513 352 246 323 223 128 134 97 126 108 59 107 15 17 39
0 0 0 0 0 1 0 0 30 222 220 33 5 20 110 125 134 24 4 3 25 87 153 133 154 198 285 234 177 161 140 95 81 60 49 41 10 0 0 45 134 85 52 55
0 0 0 0 0 0 10 8 14 158 297 216 251 309 406 130 33 29 3 5 4 4 1 38 103 217 207 142 93 78 67 63 41 26 6 6 9 16 3 5 70 55 34 15
0 0 0 0 2 0 0 12 16 24 96 85 464 413 268 191 4 26 0 1 3 3 2 0 105 35 58 42 48 49 48 41 0 6 20 34 41 16 12 45 66 9 1 1
0 0 1 0 0 0 0 2 0 18 7 179 396 557 366 106 0 1 0 1 1 2 1 1 1 0 1 1 0 0 31 28 17 31 65 23 13 7 5 3 1 1 0 0
0 0 0 0 0 19 1 8 7 0 86 69 93 185 128 62 0 1 0 0 1 1 1 2 1 1 2 1 0 5 1 1 12 28 18 8 28 27 3 1 2 1 0 0
0 0 0 0 0 0 0 0 0 0 144 5 500 201 26 1 0 0 0 0 0 0 0 0 0 1 1 1 0 0 1 1 0 0 0 0 1 1 2 1 1 1 0 0
0 0 0 0 0 0 53 0 0 0 134 62 375 177 16 0 0 0 0 0 0 0 0 0 0 0 0 0 0 1 2 0 0 0 0 0 0 0 0 0 0 0 0 0
0 0 0 0 0 0 0 0 0 532 431 518 306 174 5 0 0 0 0 0 0 0 0 0 0 0 0 0 0 0 0 0 0 0 0 1 3 0 0 0 0 0 0 0
0 0 0 0 0 0 0 0 0 620 566 454 362 149 7 0 0 0 0 0 0 0 0 0 0 0 0 0 0 0 0 0 0 0 0 0 0 0 0 0 0 0 0 0